TimeEST,TemperatureF,Dew PointF,Humidity,Sea Level PressureIn,VisibilityMPH,Wind Direction,Wind SpeedMPH,Gust SpeedMPH,PrecipitationIn,Events,Conditions,WindDirDegrees,DateUTC
12:53 AM,62.1,48.9,62,30.16,10.0,Calm,Calm,-,N/A,,Scattered Clouds,0,2013-03-09 05:53:00
1:53 AM,61.0,50.0,67,30.16,10.0,WNW,4.6,-,N/A,,Mostly Cloudy,300,2013-03-09 06:53:00
2:53 AM,60.1,50.0,69,30.14,10.0,WNW,3.5,-,N/A,,Mostly Cloudy,290,2013-03-09 07:53:00
3:53 AM,57.9,51.1,78,30.12,10.0,NW,3.5,-,N/A,,Scattered Clouds,310,2013-03-09 08:53:00
4:53 AM,57.9,52.0,81,30.13,10.0,Calm,Calm,-,N/A,,Scattered Clouds,0,2013-03-09 09:53:00
5:53 AM,57.9,52.0,81,30.15,10.0,WNW,4.6,-,N/A,,Clear,290,2013-03-09 10:53:00
6:53 AM,57.0,52.0,83,30.16,7.0,NW,3.5,-,N/A,,Partly Cloudy,320,2013-03-09 11:53:00
7:53 AM,61.0,53.1,75,30.18,10.0,NNW,6.9,-,N/A,,Partly Cloudy,340,2013-03-09 12:53:00
8:53 AM,66.9,53.1,61,30.19,10.0,North,6.9,-,N/A,,Partly Cloudy,350,2013-03-09 13:53:00
9:53 AM,72.0,52.0,49,30.20,10.0,North,5.8,-,N/A,,Partly Cloudy,350,2013-03-09 14:53:00
10:53 AM,73.9,54.0,50,30.19,10.0,ENE,9.2,-,N/A,,Scattered Clouds,70,2013-03-09 15:53:00
11:53 AM,75.0,55.9,51,30.18,10.0,ENE,10.4,18.4,N/A,,Mostly Cloudy,70,2013-03-09 16:53:00
12:53 PM,75.9,55.0,48,30.17,10.0,NE,11.5,-,N/A,,Mostly Cloudy,40,2013-03-09 17:53:00
1:53 PM,73.9,54.0,50,30.14,10.0,NNE,5.8,-,N/A,,Mostly Cloudy,30,2013-03-09 18:53:00
2:53 PM,75.0,54.0,48,30.13,10.0,ENE,12.7,21.9,N/A,,Mostly Cloudy,70,2013-03-09 19:53:00
3:53 PM,73.0,55.0,53,30.14,10.0,East,15.0,-,N/A,,Mostly Cloudy,80,2013-03-09 20:53:00
4:53 PM,71.1,54.0,55,30.13,10.0,ENE,15.0,21.9,N/A,,Mostly Cloudy,70,2013-03-09 21:53:00
5:53 PM,69.1,54.0,58,30.14,10.0,NE,11.5,-,N/A,,Mostly Cloudy,50,2013-03-09 22:53:00
6:53 PM,69.1,52.0,54,30.16,10.0,ENE,11.5,-,N/A,,Mostly Cloudy,60,2013-03-09 23:53:00
7:53 PM,68.0,52.0,56,30.18,10.0,NE,11.5,-,N/A,,Mostly Cloudy,50,2013-03-10 00:53:00
8:53 PM,66.9,51.1,57,30.19,10.0,NE,8.1,-,N/A,,Scattered Clouds,50,2013-03-10 01:53:00
9:53 PM,68.0,51.1,55,30.20,10.0,ENE,6.9,-,N/A,,Mostly Cloudy,70,2013-03-10 02:53:00
10:53 PM,68.0,52.0,56,30.18,10.0,East,10.4,-,N/A,,Mostly Cloudy,80,2013-03-10 03:53:00
11:53 PM,68.0,52.0,56,30.18,10.0,East,10.4,-,N/A,,Overcast,80,2013-03-10 04:53:00